GW2516 Weather Reports


time (UTC)temp
C
wind
direction
speed
KPH
gust
KPH
rain 1hr
cm
rain 24hr
cm
rain mn
cm
humidity
%
barometer
mb
20260503200040 27 328 4.8 12.9 0.00 0.00 0.00 47 1009.9
20260503195523 27 13 6.4 12.9 0.00 0.00 0.00 47 1009.9
20260503195024 27 19 3.2 11.3 0.00 0.00 0.00 47 1010.0
20260503194551 26 321 4.8 9.7 0.00 0.00 0.00 49 1010.1
20260503194025 26 295 6.4 11.3 0.00 0.00 0.00 51 1010.1
20260503193525 26 119 6.4 12.9 0.00 0.00 0.00 50 1010.1
20260503193043 25 1 4.8 12.9 0.00 0.00 0.00 51 1010.3
20260503192525 25 322 6.4 11.3 0.00 0.00 0.00 52 1010.3
20260503192023 25 9 4.8 8.0 0.00 0.00 0.00 53 1010.4
20260503191540 25 330 3.2 8.0 0.00 0.00 0.00 53 1010.4
20260503191024 25 292 3.2 14.5 0.00 0.00 0.00 53 1010.5
20260503190524 24 314 6.4 14.5 0.00 0.00 0.00 55 1010.6
20260503190045 24 25 6.4 12.9 0.00 0.00 0.00 53 1010.6
20260503185524 24 56 4.8 9.7 0.00 0.00 0.00 54 1010.7
20260503185027 24 10 1.6 11.3 0.00 0.00 0.00 55 1010.9
20260503184548 24 311 4.8 11.3 0.00 0.00 0.00 55 1010.8
20260503184024 23 42 1.6 9.7 0.00 0.00 0.00 57 1010.9
20260503183524 23 259 1.6 9.7 0.00 0.00 0.00 56 1010.9
20260503183052 23 29 4.8 11.3 0.00 0.00 0.00 56 1011.0
20260503182526 23 263 3.2 11.3 0.00 0.00 0.00 58 1011.1
20260503182027 22 323 4.8 9.7 0.00 0.00 0.00 59 1011.1
20260503181557 22 63 6.4 9.7 0.00 0.00 0.00 58 1011.2
20260503181025 22 59 3.2 9.7 0.00 0.00 0.00 60 1011.2
20260503180528 22 305 3.2 9.7 0.00 0.00 0.00 62 1011.3
20260503180048 21 58 4.8 11.3 0.00 0.00 0.00 61 1011.3
20260503175526 21 345 6.4 11.3 0.00 0.00 0.00 61 1011.4
20260503175027 21 82 1.6 11.3 0.00 0.00 0.00 65 1011.4
20260503174537 21 291 6.4 12.9 0.00 0.00 0.00 65 1011.5
20260503174027 20 316 6.4 12.9 0.00 0.00 0.00 66 1011.5
20260503173524 20 319 4.8 9.7 0.00 0.00 0.00 68 1011.5
20260503173036 20 322 4.8 9.7 0.00 0.00 0.00 68 1011.6
20260503172526 20 23 4.8 8.0 0.00 0.00 0.00 68 1011.7
20260503172023 20 32 4.8 9.7 0.00 0.00 0.00 69 1011.7
20260503171541 19 30 4.8 11.3 0.00 0.00 0.00 69 1011.7
20260503171026 19 326 3.2 11.3 0.00 0.00 0.00 70 1011.6
20260503170527 19 319 4.8 11.3 0.00 0.00 0.00 71 1011.8
20260503150526 16 0 0.0 0.0 0.00 0.00 0.00 83 1012.2
20260503131025 11 0 0.0 0.0 0.00 0.00 0.00 96 1011.8
20260503130527 11 0 0.0 0.0 0.00 0.00 0.00 96 1011.7
20260503110526 12 0 0.0 0.0 0.00 0.00 0.00 95 1012.1
20260503081546 13 0 0.0 0.0 0.00 0.10 0.00 90 1012.3
20260503081024 13 0 0.0 0.0 0.00 0.10 0.00 90 1012.3
20260503080524 13 0 0.0 0.0 0.00 0.10 0.00 90 1012.1
20260503072524 14 0 0.0 0.0 0.00 0.10 0.00 87 1012.2
20260503072027 14 0 0.0 1.6 0.00 0.10 0.00 87 1012.2
20260503071541 15 0 0.0 1.6 0.00 0.10 0.00 87 1012.3
20260503071024 15 0 0.0 1.6 0.00 0.10 0.00 87 1012.2
20260503070528 15 0 0.0 0.0 0.00 0.10 0.00 86 1012.2
20260503055024 16 205 1.6 3.2 0.00 0.10 0.10 82 1012.3
20260503054541 16 0 0.0 0.0 0.00 0.10 0.10 82 1012.1
20260503054024 16 0 0.0 0.0 0.00 0.10 0.10 81 1012.0
20260503053524 16 0 0.0 0.0 0.00 0.10 0.10 81 1011.9
20260503053036 16 0 0.0 0.0 0.00 0.10 0.10 80 1011.9
20260503052524 16 0 0.0 1.6 0.00 0.10 0.10 80 1012.0
20260503052024 16 0 0.0 3.2 0.00 0.10 0.10 80 1011.9
20260503051544 16 312 1.6 3.2 0.00 0.10 0.10 79 1012.1
20260503051024 17 334 1.6 3.2 0.00 0.10 0.10 79 1012.0
20260503050524 17 0 0.0 0.0 0.00 0.10 0.10 79 1012.1
20260503050043 16 0 0.0 0.0 0.00 0.10 0.10 79 1012.2
20260503045526 17 0 0.0 0.0 0.00 0.10 0.10 79 1012.3
20260503045025 17 0 0.0 1.6 0.00 0.10 0.10 78 1012.4
20260503044558 17 0 0.0 1.6 0.00 0.10 0.10 78 1012.3
20260503044024 17 0 0.0 1.6 0.00 0.10 0.10 78 1012.2
20260503043524 17 0 0.0 0.0 0.00 0.10 0.10 78 1012.4
20260503043041 17 0 0.0 1.6 0.00 0.10 0.10 78 1012.5
20260503042524 17 0 0.0 1.6 0.00 0.10 0.10 77 1012.4
20260503042024 17 107 0.0 1.6 0.00 0.10 0.10 77 1012.3
20260503041537 17 0 0.0 1.6 0.00 0.10 0.10 77 1012.3
20260503041024 17 0 0.0 1.6 0.00 0.10 0.10 77 1012.2
20260503040523 17 0 0.0 0.0 0.00 0.10 0.10 76 1012.2
20260503040051 17 0 0.0 0.0 0.00 0.10 0.10 76 1012.3
20260503035525 17 0 0.0 0.0 0.00 0.10 0.10 76 1012.3
20260503035025 17 0 0.0 0.0 0.00 0.10 0.10 75 1012.3
20260503034542 17 0 0.0 0.0 0.00 0.10 0.10 75 1012.2
20260503034025 17 0 0.0 0.0 0.00 0.10 0.10 75 1012.3
20260503033524 17 0 0.0 0.0 0.00 0.10 0.10 75 1012.2
20260503033043 17 0 0.0 0.0 0.00 0.10 0.10 74 1012.1
20260503032525 18 0 0.0 0.0 0.00 0.10 0.10 74 1012.1
20260503032025 18 0 0.0 4.8 0.00 0.10 0.10 73 1012.2
20260503031540 18 0 0.0 4.8 0.00 0.10 0.10 73 1012.1
20260503031024 18 0 1.6 11.3 0.00 0.10 0.10 73 1012.0
20260503030528 18 198 3.2 11.3 0.00 0.10 0.10 73 1012.0
20260503030038 18 192 6.4 11.3 0.00 0.10 0.10 72 1011.9
20260503025524 18 193 4.8 17.7 0.00 0.10 0.10 72 1011.8
20260503025024 18 193 8.0 17.7 0.00 0.10 0.10 72 1011.9
20260503024543 18 205 9.7 22.5 0.00 0.10 0.10 72 1012.0
20260503024024 18 219 12.9 22.5 0.00 0.10 0.10 71 1011.9
20260503023525 19 197 6.4 22.5 0.00 0.10 0.10 70 1012.0
20260503023047 19 192 8.0 22.5 0.00 0.10 0.10 69 1011.8
20260503022524 20 219 12.9 22.5 0.00 0.10 0.10 67 1011.8
20260503022024 21 192 6.4 22.5 0.00 0.10 0.10 65 1011.7
20260503021549 21 190 11.3 22.5 0.00 0.10 0.10 63 1011.8
20260503021024 21 195 4.8 16.1 0.00 0.10 0.10 62 1011.8
20260503020524 22 194 0.0 3.2 0.00 0.10 0.10 61 1011.5
20260503020044 22 203 0.0 3.2 0.00 0.10 0.10 61 1011.2
20260503015528 22 0 0.0 1.6 0.00 0.10 0.10 61 1011.1
20260503015025 22 0 0.0 3.2 0.00 0.10 0.10 61 1011.0
20260503014547 22 193 0.0 3.2 0.00 0.10 0.10 60 1011.0
20260503014024 22 205 0.0 0.0 0.00 0.10 0.10 60 1011.0
20260503013524 22 0 0.0 0.0 0.00 0.10 0.10 60 1010.9
20260503013046 22 0 0.0 0.0 0.00 0.10 0.10 60 1011.0
20260503012524 22 0 0.0 3.2 0.00 0.10 0.10 61 1011.1
20260503012024 22 0 0.0 3.2 0.00 0.10 0.10 60 1011.0
20260503011542 22 0 0.0 3.2 0.00 0.10 0.10 59 1011.0
20260503011024 22 229 0.0 1.6 0.00 0.10 0.10 59 1010.9
20260503010525 22 0 0.0 4.8 0.00 0.10 0.10 58 1010.9
20260503010045 22 191 1.6 4.8 0.00 0.10 0.10 58 1011.0
20260503005525 22 0 0.0 1.6 0.00 0.10 0.10 59 1011.0
20260503005025 22 193 0.0 4.8 0.00 0.10 0.10 58 1011.1
20260503004540 22 0 0.0 4.8 0.00 0.10 0.10 59 1011.0
20260503004027 22 246 0.0 4.8 0.00 0.10 0.10 58 1011.0
20260503003524 22 0 0.0 9.7 0.00 0.10 0.10 59 1011.0
20260503003039 22 302 1.6 9.7 0.00 0.10 0.10 59 1011.0
20260503002527 22 321 3.2 8.0 0.00 0.10 0.10 59 1011.0
20260503002027 22 205 1.6 9.7 0.00 0.10 0.10 59 1011.0
20260503001545 22 107 3.2 9.7 0.00 0.10 0.10 60 1011.1
20260503001024 22 273 3.2 8.0 0.00 0.10 0.10 59 1011.1
20260503000524 22 345 3.2 6.4 0.00 0.10 0.10 58 1011.2
20260503000041 22 246 3.2 9.7 0.00 0.10 0.10 58 1011.1
20260502235524 22 0 0.0 9.7 0.00 0.10 0.10 60 1011.2
20260502235024 21 335 6.4 9.7 0.00 0.10 0.10 60 1011.2
20260502234550 21 311 4.8 9.7 0.00 0.10 0.10 59 1011.3
20260502234024 21 0 0.0 14.5 0.00 0.10 0.10 59 1011.3
20260502233528 21 309 4.8 14.5 0.00 0.10 0.10 61 1011.4
20260502233040 21 262 3.2 8.0 0.00 0.10 0.10 61 1011.5
20260502232524 21 281 3.2 9.7 0.00 0.10 0.10 61 1011.5
20260502232024 21 0 1.6 9.7 0.00 0.10 0.10 62 1011.6
20260502231545 20 269 1.6 17.7 0.00 0.10 0.10 62 1011.7
20260502231028 20 186 3.2 17.7 0.00 0.10 0.10 64 1011.8
20260502230525 20 59 8.0 16.1 0.00 0.10 0.10 63 1011.8
20260502230044 20 278 1.6 14.5 0.00 0.10 0.10 63 1011.9
20260502225527 20 255 4.8 14.5 0.00 0.10 0.10 63 1012.0
20260502225026 20 27 1.6 14.5 0.00 0.10 0.10 63 1012.1
20260502224541 20 336 1.6 14.5 0.00 0.10 0.10 63 1012.1
20260502224024 20 296 6.4 14.5 0.00 0.10 0.10 64 1012.2
20260502223526 20 77 4.8 14.5 0.00 0.10 0.10 64 1012.3
20260502223040 20 251 3.2 11.3 0.00 0.10 0.10 64 1012.4
20260502222524 20 325 4.8 11.3 0.00 0.10 0.10 65 1012.4
20260502222028 19 20 4.8 11.3 0.00 0.10 0.10 65 1012.6
20260502221547 19 57 4.8 11.3 0.00 0.10 0.10 66 1012.7
20260502221025 19 34 3.2 9.7 0.00 0.10 0.10 65 1012.8
20260502220524 19 0 3.2 11.3 0.00 0.10 0.10 65 1012.9
20260502220104 18 0 3.2 12.9 0.00 0.10 0.10 67 1012.9
20260502215524 18 333 3.2 12.9 0.00 0.10 0.10 66 1013.0
20260502215024 19 333 4.8 12.9 0.00 0.10 0.10 65 1013.1
20260502214541 18 276 0.0 11.3 0.00 0.10 0.10 68 1013.1
20260502214025 17 336 1.6 11.3 0.00 0.10 0.10 68 1013.2
20260502213524 17 262 8.0 11.3 0.00 0.10 0.10 68 1013.3
20260502213043 17 0 6.4 11.3 0.00 0.10 0.10 69 1013.3
20260502212526 17 250 6.4 11.3 0.00 0.10 0.10 69 1013.5
20260502212024 17 309 4.8 16.1 0.00 0.10 0.10 68 1013.5
20260502211544 17 28 6.4 16.1 0.00 0.10 0.10 69 1013.6
20260502211024 17 6 8.0 16.1 0.00 0.10 0.10 68 1013.6
20260502210524 17 243 6.4 14.5 0.00 0.10 0.10 68 1013.6
20260502210049 17 330 3.2 14.5 0.00 0.10 0.10 71 1013.6
20260502205524 17 317 4.8 14.5 0.00 0.10 0.10 69 1013.8
20260502205025 17 63 3.2 11.3 0.00 0.10 0.10 71 1014.0
20260502204542 17 326 6.4 11.3 0.00 0.10 0.10 69 1014.2
20260502204024 16 0 0.0 9.7 0.00 0.10 0.10 71 1014.0
20260502203525 16 310 4.8 11.3 0.00 0.10 0.10 71 1014.0
20260502203057 16 71 4.8 11.3 0.00 0.10 0.10 70 1014.1
20260502202524 16 65 3.2 12.9 0.00 0.10 0.10 71 1014.1
20260502202024 16 285 4.8 12.9 0.00 0.10 0.10 72 1014.2
20260502201544 16 212 4.8 11.3 0.00 0.10 0.10 70 1014.3
20260502201025 16 343 6.4 11.3 0.00 0.10 0.10 70 1014.5
20260502200524 16 204 3.2 11.3 0.00 0.10 0.10 70 1014.5